Wind_Speed
52 53 53 55 57 60 59 55 53 52 51 50 49 48 47 47 46 45 44 40 38 36 34 31 29 27 26 24 23 21 20 19 18 17 16 15 14 13 12 11 9 9 8 7 6 5 5 5 4
53 54 55 57 60 61 59 56 56 55 54 52 51 50 49 49 48 47 44 42 40 38 36 33 31 29 27 26 25 23 22 21 20 19 17 16 15 14 13 12 10 10 9 8 8 7 6 6 5
53 53 55 58 60 60 58 57 57 56 56 55 53 53 52 51 49 48 46 44 42 40 38 35 33 31 29 28 26 25 23 22 21 20 19 17 16 15 14 13 11 11 10 9 9 8 7 7 6
51 52 54 57 59 58 56 56 57 57 57 56 55 55 54 52 50 49 47 46 44 42 39 37 35 32 31 29 28 26 25 23 22 21 20 19 18 16 15 14 13 12 11 10 10 9 9 8 8
48 49 52 55 56 56 56 56 56 56 57 56 56 57 55 54 52 51 49 47 46 44 41 39 36 34 32 31 29 28 26 25 23 22 21 20 19 18 16 15 14 13 12 11 11 10 10 9 9
44 47 50 52 51 53 53 54 56 56 57 57 57 57 55 55 53 52 51 49 48 46 44 41 38 36 34 32 30 29 27 26 25 24 22 21 20 19 18 16 15 14 13 12 12 11 11 10 10
41 45 47 48 48 50 48 51 55 55 56 57 57 57 56 56 55 54 53 51 49 48 46 43 40 37 35 33 32 30 28 27 26 25 24 23 21 20 19 18 16 15 14 13 13 12 12 11 11
38 41 42 44 44 47 47 50 53 55 56 56 57 56 56 57 56 55 54 53 51 49 47 45 42 39 37 35 32 31 29 28 28 26 25 24 23 22 21 19 18 17 16 15 14 14 13 13 12
35 38 38 39 41 43 46 48 51 52 54 56 57 55 55 56 57 57 56 55 54 52 49 47 43 41 38 36 34 32 30 29 29 28 26 25 24 23 22 21 19 18 17 16 16 15 15 14 14
32 34 34 36 39 41 43 46 49 51 53 54 56 56 55 56 58 58 56 55 54 52 50 47 44 41 39 37 35 33 32 31 30 29 28 26 25 25 24 23 21 20 19 18 18 17 17 16 16
27 28 29 33 35 38 41 42 44 47 49 51 53 54 55 55 58 58 57 55 54 52 50 47 45 43 41 38 37 35 34 32 31 30 29 28 27 26 25 24 23 22 21 20 20 19 18 18 18
24 25 28 31 32 35 37 38 39 42 44 48 52 54 55 56 57 57 58 58 55 53 51 48 46 44 43 40 37 36 35 34 32 31 30 29 28 27 26 25 24 23 23 22 21 21 20 20 20
21 22 24 28 31 32 33 36 37 39 41 46 51 53 53 55 57 58 59 56 55 53 51 48 46 44 43 41 39 38 36 35 34 32 31 30 29 28 27 27 26 25 24 24 23 23 22 22 22
18 18 20 24 28 28 30 32 35 35 39 43 48 51 53 51 55 58 59 55 55 54 53 51 48 46 44 42 40 39 38 36 36 34 33 32 31 30 29 28 27 26 26 25 25 24 24 24 23
15 15 17 21 25 26 28 29 32 34 37 42 46 49 51 51 54 57 59 56 56 53 52 51 49 47 46 44 41 40 40 39 37 36 35 33 33 32 31 30 29 28 27 27 26 26 26 26 26
13 13 12 17 21 25 26 26 29 33 37 41 44 46 49 50 53 55 56 57 56 54 53 51 49 48 47 45 43 43 42 41 40 38 37 36 35 34 33 32 31 31 30 30 29 28 28 28 28
11 12 11 14 19 23 25 24 26 30 35 39 42 45 47 50 52 53 53 56 56 54 52 50 49 49 49 47 46 44 44 42 42 40 38 37 36 35 35 34 33 33 32 32 31 31 31 30 30
9 10 10 13 17 21 23 23 25 28 34 38 40 42 46 48 51 53 53 51 51 53 52 49 50 49 49 47 48 46 46 44 43 42 40 39 38 38 37 36 35 35 34 34 34 34 33 33 33
6 7 9 12 15 19 20 21 24 27 32 36 38 41 45 47 49 51 51 50 48 50 51 49 50 49 49 48 47 46 46 45 44 43 42 41 40 40 39 38 37 36 36 36 36 36 35 36 36
4 4 7 11 14 16 18 20 22 25 29 34 36 39 42 45 46 47 48 48 47 48 48 47 47 47 48 47 47 47 46 45 45 44 44 44 43 42 42 40 39 39 38 38 38 37 37 37 38
3 5 8 12 13 14 16 18 19 22 26 31 33 36 39 43 44 45 46 47 46 46 45 44 44 44 45 44 46 47 47 45 46 46 46 45 44 44 44 42 42 41 40 40 40 40 40 40 40
5 7 9 10 11 13 15 15 17 20 24 28 31 33 37 39 43 43 43 45 45 44 44 44 41 41 44 45 43 42 44 44 45 45 45 46 46 46 46 44 44 43 42 42 42 42 42 42 41
7 8 9 10 11 12 12 13 15 19 21 25 29 31 33 35 39 42 44 44 45 44 41 43 40 40 43 46 44 42 43 43 44 47 48 48 48 47 47 46 45 46 45 45 45 45 44 43 42
9 9 9 10 11 11 11 11 13 16 19 22 25 28 30 32 34 37 39 41 42 42 39 39 39 38 42 45 45 44 45 44 44 46 48 49 49 50 49 48 48 48 48 48 47 46 44 44 43
10 10 10 10 10 10 9 9 9 11 14 18 22 25 26 28 29 32 34 36 39 40 40 38 37 37 39 42 45 45 45 45 44 45 47 50 51 51 50 50 50 50 50 48 48 47 46 45 45
9 8 9 10 10 11 9 8 8 8 10 13 17 21 22 24 25 29 32 34 37 38 39 40 37 36 37 40 42 44 45 44 45 47 48 49 50 51 52 53 52 51 50 49 49 47 46 44 43
9 9 9 9 10 10 8 8 8 9 9 10 14 18 20 21 22 25 28 31 33 34 35 37 38 39 39 39 40 43 45 45 44 46 47 49 51 51 51 51 50 50 50 51 50 48 45 44 44
9 9 9 9 10 10 9 7 7 8 8 8 10 15 18 21 22 24 27 29 31 33 34 35 37 39 40 40 42 44 45 45 44 44 45 46 47 49 51 49 48 48 48 49 49 47 46 45 44
9 8 7 7 8 9 8 6 5 6 7 8 10 14 17 18 21 23 24 27 29 32 34 35 36 37 39 40 41 43 44 45 45 44 44 46 46 46 47 47 47 47 47 46 46 46 46 46 45
9 8 7 7 7 7 6 5 5 6 7 8 10 13 16 17 20 22 23 24 28 30 33 35 37 37 39 40 42 43 43 44 44 44 44 44 45 45 46 47 46 48 48 47 45 45 44 45 45
Wind_Direction
261 259 255 252 250 248 248 249 248 246 245 242 239 236 234 231 229 228 227 225 225 224 223 224 223 223 224 226 227 227 228 228 227 227 226 224 223 223 226 228 229 232 235 238 240 243 244 244 245
262 258 254 251 249 249 249 249 247 245 243 240 237 234 231 229 227 226 225 223 222 222 222 222 223 223 223 224 225 226 227 226 227 227 227 227 226 226 228 231 231 234 237 240 241 242 243 245 246
262 257 253 249 247 248 250 247 245 243 241 238 235 232 229 227 224 223 222 221 220 220 221 221 221 222 222 223 224 225 226 225 226 227 228 228 229 229 231 233 234 236 239 240 242 243 243 244 244
261 256 251 248 246 247 246 244 242 239 237 235 233 230 228 225 222 220 220 220 219 219 219 220 220 220 221 222 223 224 224 224 225 226 228 229 230 231 233 233 234 237 239 240 242 242 242 243 242
259 253 250 248 245 244 244 241 238 237 235 233 232 229 226 223 220 218 217 217 218 218 217 218 219 219 220 221 222 224 224 224 225 227 228 229 230 231 232 232 234 237 238 240 241 241 241 241 241
257 251 249 248 245 241 241 238 235 234 232 231 230 227 224 221 219 216 215 215 216 216 216 217 217 218 220 221 221 223 224 224 225 227 228 228 230 231 231 231 234 236 237 240 241 241 241 241 242
255 251 248 247 244 240 236 234 232 230 228 227 227 225 221 219 216 214 214 214 214 214 214 215 216 217 219 220 220 222 223 224 226 227 228 229 229 230 230 231 234 236 237 239 241 242 242 243 245
256 252 249 246 243 238 232 232 230 227 224 223 222 221 218 217 214 212 212 212 213 213 213 215 216 216 218 219 220 221 222 224 226 227 228 228 229 230 231 232 235 237 238 239 241 242 242 244 247
255 252 250 245 240 234 229 230 228 226 223 220 219 216 216 214 211 210 210 211 212 212 212 213 213 216 217 219 220 221 222 224 225 226 227 228 229 231 232 232 235 237 238 240 241 243 243 245 248
255 253 249 241 238 233 230 228 226 223 221 219 216 213 213 211 210 208 208 209 211 210 211 212 213 214 217 218 220 222 223 224 225 226 227 229 230 231 233 234 235 237 238 239 240 242 244 247 249
256 251 242 236 234 231 229 226 223 221 219 216 212 208 209 208 207 206 207 208 208 210 211 212 214 215 216 218 220 222 222 224 225 226 228 229 231 233 234 235 236 237 238 239 240 242 246 248 251
256 248 237 234 229 227 224 223 220 218 215 210 206 205 205 206 206 205 207 207 207 208 210 212 214 214 216 218 219 219 222 224 225 227 229 231 232 233 235 235 236 237 239 239 240 243 247 249 252
254 244 235 229 226 221 220 220 218 215 212 208 204 203 203 204 205 206 205 206 206 205 208 212 213 215 217 218 220 220 222 224 224 226 229 231 232 233 235 236 237 238 240 241 242 244 247 250 253
253 243 231 226 223 222 218 217 216 212 210 209 205 203 203 204 204 204 204 204 205 206 207 211 213 214 215 217 219 220 222 224 226 226 228 231 232 234 235 237 238 239 242 243 244 246 249 251 255
247 239 230 225 222 220 214 213 213 210 209 207 205 203 202 203 202 202 203 203 204 204 206 209 212 215 216 218 220 222 223 225 226 227 228 230 232 234 236 238 239 240 242 244 246 248 251 253 256
244 239 231 219 220 216 212 208 209 211 207 206 206 203 202 203 203 202 204 204 205 205 207 210 211 214 216 218 220 222 223 224 226 227 228 230 232 234 236 238 240 241 243 245 247 249 252 254 257
247 239 229 216 214 214 208 205 204 206 205 205 206 205 203 203 203 204 205 205 207 207 207 209 213 214 216 218 221 224 224 225 227 228 228 230 233 235 236 238 240 243 245 246 248 250 253 255 258
242 230 221 212 208 208 205 202 203 205 206 206 207 207 205 205 204 204 204 203 206 207 208 210 212 214 216 219 221 225 226 226 227 228 229 231 234 236 237 239 242 244 246 248 250 252 254 256 259
233 224 213 206 199 198 200 203 203 204 205 205 206 206 205 206 206 207 207 207 209 210 210 211 211 215 218 220 223 226 226 227 228 229 231 233 235 237 239 241 244 246 248 250 252 254 256 257 259
205 195 188 197 190 189 194 199 200 203 204 204 207 208 207 207 209 209 209 210 211 211 211 212 213 215 219 222 224 225 226 228 229 230 232 234 236 239 241 243 244 247 249 252 253 255 257 259 260
165 169 172 179 183 183 186 189 197 201 202 206 209 210 210 211 212 212 213 214 213 213 214 214 215 217 220 223 226 227 228 229 231 232 234 237 239 241 243 244 246 248 250 253 255 257 258 260 261
136 142 156 170 178 179 185 188 192 193 197 204 208 210 211 211 212 214 215 216 216 216 218 219 221 221 223 224 227 229 231 233 234 235 237 239 242 244 244 245 247 249 251 254 256 258 260 260 261
124 131 143 159 171 176 182 188 192 193 197 204 209 211 211 213 217 220 221 220 220 221 223 221 223 223 224 226 229 231 233 235 238 238 238 240 242 244 245 246 248 250 252 254 256 258 260 260 261
118 122 134 149 158 168 175 181 190 197 201 206 210 211 210 213 216 221 223 224 223 224 225 225 228 227 227 230 232 235 237 240 242 241 242 243 244 245 246 249 250 251 253 255 257 258 259 259 261
119 123 128 143 158 160 162 170 175 189 199 206 210 213 212 211 215 217 222 226 227 229 232 232 235 233 233 234 235 237 239 241 242 243 244 245 246 247 247 249 251 253 254 255 256 258 259 261 262
118 125 132 140 150 153 158 167 167 176 194 206 214 218 217 218 221 222 225 229 231 234 238 240 241 243 244 242 242 243 244 245 246 246 246 246 246 247 249 251 252 253 253 254 256 258 260 262 263
117 122 129 136 145 150 150 156 163 176 193 209 217 221 225 226 226 226 229 234 236 238 243 246 249 252 253 252 252 251 250 251 252 251 251 251 250 250 252 253 254 255 255 255 256 258 260 260 262
115 121 129 136 142 147 147 149 160 178 197 215 225 227 231 234 235 235 236 238 242 243 246 250 254 256 256 258 259 258 258 256 256 257 256 254 253 253 253 252 254 254 255 256 257 258 258 259 261
118 122 130 132 135 144 145 152 166 184 202 216 228 232 235 238 240 241 242 244 247 249 249 253 256 257 257 259 261 263 262 261 260 260 260 259 256 255 255 253 254 255 255 258 260 260 260 261 262
112 116 122 132 132 143 150 164 182 199 211 220 228 234 239 242 244 246 249 250 251 252 254 256 257 258 259 261 263 264 264 263 263 263 261 259 258 257 257 257 259 257 258 261 263 263 263 263 263
Height
5756 5757 5759 5760 5760 5761 5768 5779 5786 5790 5795 5800 5805 5810 5815 5821 5828 5834 5837 5843 5846 5851 5855 5858 5861 5864 5866 5868 5870 5872 5873 5875 5876 5877 5878 5879 5880 5881 5881 5882 5882 5883 5883 5883 5883 5884 5884 5884 5884
5741 5742 5744 5744 5744 5747 5758 5768 5772 5779 5784 5789 5794 5800 5806 5812 5818 5824 5830 5835 5840 5845 5849 5853 5856 5859 5862 5865 5867 5869 5870 5872 5874 5875 5876 5877 5878 5879 5880 5880 5881 5881 5882 5882 5882 5882 5883 5883 5883
5726 5727 5728 5728 5730 5737 5749 5756 5762 5766 5771 5777 5783 5789 5796 5803 5810 5816 5823 5828 5834 5839 5843 5848 5851 5855 5858 5861 5863 5865 5867 5869 5871 5872 5874 5875 5876 5877 5878 5878 5879 5880 5880 5880 5881 5881 5881 5881 5882
5712 5712 5712 5714 5718 5727 5736 5743 5747 5752 5758 5765 5772 5778 5786 5794 5801 5808 5815 5821 5827 5832 5837 5842 5846 5850 5853 5856 5859 5862 5864 5866 5868 5870 5871 5872 5874 5875 5876 5876 5877 5878 5878 5879 5879 5879 5880 5880 5880
5697 5697 5698 5700 5707 5715 5722 5728 5733 5739 5746 5753 5760 5767 5776 5785 5792 5800 5807 5814 5820 5826 5831 5837 5841 5845 5849 5852 5855 5858 5860 5862 5865 5866 5868 5870 5871 5872 5873 5874 5875 5876 5876 5877 5877 5878 5878 5878 5878
5684 5684 5686 5689 5696 5703 5709 5714 5719 5726 5734 5741 5748 5756 5766 5775 5783 5792 5799 5806 5813 5819 5825 5830 5835 5839 5843 5847 5850 5853 5856 5859 5861 5863 5865 5866 5868 5869 5870 5871 5872 5873 5874 5874 5875 5875 5876 5876 5876
5674 5674 5676 5680 5685 5691 5698 5701 5706 5714 5721 5729 5737 5745 5755 5764 5774 5783 5791 5798 5805 5812 5818 5824 5829 5834 5838 5842 5845 5849 5852 5854 5857 5859 5861 5863 5865 5866 5867 5868 5870 5870 5871 5872 5873 5873 5874 5874 5874
5663 5665 5666 5670 5674 5681 5686 5689 5694 5701 5709 5719 5726 5734 5745 5755 5764 5774 5783 5791 5798 5804 5811 5818 5823 5828 5832 5836 5840 5844 5847 5850 5853 5855 5857 5859 5861 5862 5864 5865 5866 5867 5868 5869 5870 5871 5871 5872 5872
5653 5655 5657 5661 5665 5671 5674 5678 5684 5690 5698 5706 5715 5725 5736 5746 5755 5765 5774 5782 5790 5797 5804 5811 5817 5822 5827 5831 5835 5839 5842 5845 5848 5851 5853 5855 5857 5859 5860 5862 5863 5864 5865 5866 5867 5868 5869 5869 5870
5645 5646 5650 5653 5656 5660 5664 5669 5674 5681 5688 5696 5706 5717 5727 5737 5746 5756 5766 5775 5783 5790 5797 5804 5810 5816 5821 5825 5829 5833 5837 5840 5843 5846 5849 5851 5853 5855 5856 5858 5859 5860 5862 5863 5864 5865 5865 5866 5867
5638 5639 5641 5644 5647 5651 5656 5661 5666 5672 5679 5689 5698 5709 5718 5727 5737 5747 5758 5767 5775 5784 5791 5797 5804 5809 5815 5819 5824 5828 5832 5835 5839 5841 5844 5846 5848 5850 5852 5854 5855 5857 5858 5859 5860 5861 5862 5863 5863
5632 5632 5634 5636 5639 5643 5648 5653 5659 5664 5673 5682 5690 5699 5709 5719 5729 5738 5748 5758 5766 5775 5783 5790 5797 5803 5808 5813 5818 5822 5826 5830 5834 5837 5839 5842 5844 5846 5848 5850 5851 5853 5854 5855 5856 5857 5858 5859 5860
5627 5627 5628 5630 5634 5637 5642 5647 5653 5659 5667 5674 5683 5693 5703 5712 5722 5731 5740 5750 5758 5767 5775 5782 5789 5796 5802 5807 5811 5816 5820 5824 5828 5831 5834 5837 5839 5841 5843 5845 5847 5848 5850 5851 5852 5853 5854 5855 5855
5624 5623 5624 5626 5629 5633 5638 5643 5648 5656 5662 5669 5678 5687 5696 5705 5714 5724 5733 5742 5750 5759 5767 5775 5782 5789 5795 5800 5805 5810 5813 5818 5821 5825 5828 5831 5834 5836 5838 5840 5842 5844 5845 5846 5847 5848 5849 5850 5851
5621 5622 5623 5624 5626 5630 5635 5640 5646 5652 5657 5665 5673 5682 5691 5699 5707 5716 5726 5735 5744 5751 5760 5767 5774 5781 5788 5794 5799 5803 5807 5811 5815 5818 5822 5825 5828 5830 5832 5835 5837 5838 5840 5841 5842 5843 5844 5845 5846
5620 5620 5621 5622 5624 5628 5634 5639 5643 5648 5654 5661 5669 5677 5686 5694 5702 5710 5719 5728 5737 5746 5753 5760 5767 5774 5781 5786 5792 5796 5800 5804 5808 5812 5815 5818 5821 5824 5826 5829 5831 5833 5834 5836 5837 5838 5839 5840 5840
5619 5619 5619 5621 5623 5626 5631 5636 5640 5645 5652 5659 5666 5674 5682 5691 5698 5705 5713 5722 5731 5739 5747 5754 5761 5767 5774 5779 5784 5789 5792 5796 5801 5805 5808 5811 5815 5817 5820 5822 5824 5826 5828 5830 5831 5832 5833 5833 5834
5618 5618 5619 5620 5622 5626 5630 5634 5639 5644 5650 5657 5663 5670 5678 5686 5694 5701 5709 5718 5725 5732 5739 5747 5754 5761 5767 5771 5776 5781 5785 5790 5793 5797 5801 5804 5807 5810 5813 5815 5818 5819 5821 5823 5824 5825 5826 5827 5827
5617 5617 5618 5620 5622 5625 5629 5633 5638 5643 5648 5655 5661 5668 5675 5683 5689 5697 5705 5713 5719 5725 5732 5740 5746 5753 5759 5764 5769 5774 5779 5782 5786 5790 5793 5797 5800 5802 5805 5808 5810 5812 5814 5816 5817 5818 5819 5819 5820
5617 5617 5618 5620 5622 5625 5629 5633 5637 5642 5648 5653 5659 5666 5672 5680 5687 5693 5701 5708 5714 5720 5726 5733 5740 5746 5753 5757 5762 5766 5771 5774 5778 5782 5785 5788 5791 5794 5797 5800 5802 5804 5806 5808 5809 5810 5811 5811 5812
5618 5618 5619 5621 5623 5626 5630 5635 5638 5642 5647 5652 5657 5663 5670 5677 5683 5690 5696 5703 5709 5715 5721 5728 5733 5740 5745 5749 5754 5759 5763 5766 5770 5774 5777 5781 5784 5786 5789 5792 5794 5796 5798 5799 5801 5802 5803 5803 5804
5619 5619 5621 5622 5625 5628 5631 5634 5638 5641 5646 5651 5656 5662 5668 5674 5681 5686 5692 5699 5705 5711 5717 5722 5728 5733 5738 5743 5747 5751 5756 5760 5763 5767 5770 5773 5775 5778 5780 5783 5785 5787 5789 5790 5792 5792 5793 5794 5794
5620 5621 5622 5624 5626 5629 5631 5635 5638 5641 5646 5650 5655 5661 5667 5673 5678 5683 5689 5695 5701 5706 5712 5717 5722 5726 5731 5735 5740 5744 5747 5751 5754 5757 5760 5763 5766 5768 5771 5773 5775 5777 5779 5781 5782 5783 5784 5785 5785
5622 5623 5624 5625 5628 5631 5633 5636 5639 5641 5646 5650 5655 5660 5666 5671 5676 5681 5686 5692 5697 5702 5706 5711 5716 5720 5724 5728 5732 5736 5739 5743 5745 5748 5750 5753 5755 5758 5761 5763 5765 5767 5769 5771 5772 5773 5774 5775 5775
5625 5626 5627 5628 5629 5632 5634 5637 5640 5642 5645 5649 5654 5659 5664 5669 5674 5678 5683 5688 5693 5697 5701 5705 5710 5714 5717 5720 5724 5727 5730 5733 5736 5738 5740 5743 5745 5748 5750 5752 5754 5756 5758 5760 5761 5762 5764 5764 5766
5627 5628 5630 5630 5631 5634 5636 5637 5641 5642 5646 5649 5653 5658 5662 5667 5671 5675 5680 5684 5689 5693 5696 5700 5704 5707 5710 5713 5715 5718 5721 5723 5725 5728 5730 5732 5735 5737 5739 5741 5743 5745 5746 5748 5750 5752 5753 5754 5755
5629 5630 5631 5633 5633 5635 5637 5639 5641 5643 5646 5649 5652 5657 5661 5665 5669 5673 5677 5680 5684 5688 5691 5694 5697 5699 5702 5704 5707 5709 5711 5714 5715 5717 5719 5721 5723 5725 5727 5729 5731 5733 5735 5737 5739 5740 5742 5743 5744
5632 5632 5634 5635 5635 5637 5639 5640 5643 5644 5647 5649 5652 5655 5659 5663 5667 5670 5673 5676 5680 5683 5686 5688 5690 5692 5694 5696 5698 5700 5701 5703 5704 5706 5708 5709 5711 5713 5715 5717 5719 5721 5723 5725 5727 5728 5730 5731 5732
5634 5635 5635 5636 5637 5638 5639 5643 5643 5645 5647 5649 5652 5655 5658 5661 5664 5667 5670 5672 5675 5678 5680 5682 5684 5685 5687 5688 5689 5691 5692 5692 5693 5695 5696 5697 5699 5701 5703 5705 5706 5709 5711 5713 5714 5716 5718 5719 5721
5635 5636 5637 5638 5639 5639 5640 5645 5643 5645 5647 5649 5651 5653 5656 5658 5661 5663 5665 5668 5670 5672 5673 5675 5676 5677 5678 5680 5681 5681 5681 5682 5682 5683 5684 5685 5687 5689 5691 5692 5694 5696 5698 5700 5702 5704 5706 5707 5709